Regional Weather Roundup
Issued by NWS Albuquerque, NM

Home | Current Version | Previous Version | Text Only | Print | Product List | Glossary On
Versions: 1 2 3 4 5 6 7 8 9 10 11 12 13 14 15 16 17 18 19 20 21 22 23 24 25 26 27 28 29 30 31 32 33 34 35 36 37 38 39 40 41 42 43 44 45 46 47 48 49 50
418
NZUS01 KABQ 211710
RWRABQ
NEW MEXICO REGIONAL WEATHER ROUNDUP
NATIONAL WEATHER SERVICE  ALBUQUERQUE NM
1100 AM MDT TUE MAY 21 2019


-----NORTHERN NEW MEXICO AND NEARBY AREAS-----


CITY           SKY/WX    TMP DP  RH WIND       PRES   REMARKS
ALBUQUERQUE    PTSUNNY   53  29  39 W14G31    29.73F
BELEN          PTSUNNY   58  26  29 W26G33    29.76S
SOCORRO        FAIR      59  25  26 NW17G32   29.77F

CITY           SKY/WX    TMP DP  RH WIND       PRES   REMARKS
SANTA FE       CLOUDY    45  29  53 W12       29.71S
LOS ALAMOS       N/A     40  31  69 SE6       29.72F
TAOS           CLOUDY    43  30  60 SW18G25   29.69R
ANGEL FIRE       N/A     33  27  79 SW13G26   29.66R WCI  23
FARMINGTON     PTSUNNY   50  39  66 W13       29.73F
GRANTS         MOSUNNY   48  28  45 W28G40    29.79S
GALLUP         CLOUDY    48  33  56 SW16G25   29.81F
FLAGSTAFF      CLOUDY    41  31  67 SW13G23   29.84R
DURANGO        PTSUNNY   47  34  60 W18G29    29.70F

CITY           SKY/WX    TMP DP  RH WIND       PRES   REMARKS
ALAMOSA        CLOUDY    41  27  57 SE10      29.60F
DENVER         CLOUDY    34  32  92 NW15      29.57F FOG     WCI  24
CLAYTON        LGT RAIN  42  37  82 NW24G38   29.45F
RATON          PTSUNNY   51  33  50 N14G25    29.49F
LAS VEGAS      MOSUNNY   53  23  31 NW21G30   29.54F
CLINES CORNERS LGT RAIN  43  30  60 W33G46    29.70F
SANTA ROSA     FAIR      60  28  29 W35G48    29.55S
TUCUMCARI      SUNNY     65  30  27 W32G40    29.47F
CLOVIS (AFB)   MOSUNNY   62  27  27 W38G54    29.58F
CLOVIS         MOSUNNY   63  29  27 W35G47    29.57F
AMARILLO       MOSUNNY   63  33  32 SW28G44   29.45F

-----SOUTHERN NEW MEXICO AND NEARBY AREAS-----


CITY           SKY/WX    TMP DP  RH WIND       PRES   REMARKS
T OR C         SUNNY     61  23  23 W15       29.80F
DEMING         SUNNY     61  26  26 W16G28    29.87F
TUCSON         SUNNY     67  33  28 VRB5G16   29.87F
EL PASO        MOSUNNY   63  22  20 NW8       29.85F
LAS CRUCES     SUNNY     61  24  23 W20G33    29.88S

CITY           SKY/WX    TMP DP  RH WIND       PRES   REMARKS
ALAMOGORDO     SUNNY     62  26  25 SW12G22   29.85F
RUIDOSO        SUNNY     50  21  32 SW23G33   29.80S
ROSWELL        SUNNY     69  23  17 W18G36    29.66F
CARLSBAD       SUNNY     69  22  16 W31G43    29.70S
HOBBS          SUNNY     68  21  17 SW25G37   29.73F



USA.gov is the U.S. government's official web portal to all federal, state and local government web resources and services.